Location: Newark
(37.8333°N, 119.5000°W)
Time: 08:08:40
(UTC+00:00)

Tiros 1 despin weight - Pass Details

Date: 24 August 2019
Orbit: 594 x 643 km, 48.2° (Epoch: 16 October)

Event Time Altitude Azimuth Distance (km) Brightness Sun altitude
Rises 05:31:36 0° 210° (SSW) 2,811 - -29.9°
Reaches altitude 10° 05:34:02 10° 200° (SSW) 1,915 - -30.2°
Maximum altitude 05:37:57 33° 137° (SE) 1,011 - -30.7°
Drops below altitude 10° 05:41:56 10° 73° (ENE) 1,940 - -31.2°
Sets 05:44:24 0° 64° (ENE) 2,853 - -31.5°
